[[{"header":{"parameterUnit":"m.s-1","parameterCategory":1,"la1":30.2992,"la2":30.254,"lo1":-89.0895,"lo2":-89.0443,"dy":0.0025,"dx":0.0025,"nx":19,"ny":19,"refTime":"2026-04-17T21:00:00:Z","depth":0,"parameterNumber":2,"parameterNumberName":"U-component_of_WINDS"},"data":[0,0,0,2.356,2.3562,2.364,2.3641,2.374,2.3741,0,0,0,0,0,0,0,0,0,0,0,2.3538,2.3539,2.356,2.3562,2.364,2.3641,2.374,2.3741,0,0,0,0,0,0,0,0,0,0,0,2.3538,2.3539,2.354,2.3562,2.364,2.3641,2.374,2.368,0,0,0,0,0,0,0,0,0,0,2.3604,2.3587,2.3539,2.354,2.3563,2.364,2.3641,2.3677,2.3684,2.3705,0,2.3726,0,2.3735,2.3748,2.3748,0,0,0,2.356,2.3581,2.3601,2.354,2.3563,2.364,2.3604,2.3681,2.3688,2.3713,2.3727,2.3731,2.3737,2.3748,2.3749,2.3876,2.3877,0,0,2.3556,2.3553,2.3596,2.3606,2.3596,2.3602,2.3607,2.3685,2.37,2.3728,2.3733,2.3738,2.3749,2.375,2.3876,2.3877,0,0,0,2.3544,2.3551,2.3568,2.3602,2.3616,2.3604,2.361,2.3696,2.3702,2.3734,2.3739,2.375,2.3751,2.3875,2.3876,2.3906,0,0,0,2.3542,2.3544,2.3566,2.3566,2.3615,2.3658,2.3619,2.3697,2.3706,2.3739,2.375,2.3752,2.3874,2.3876,2.3903,2.3919,0,0,0,2.3533,2.3543,2.3555,2.3565,2.3599,2.3656,2.3667,2.3699,2.3709,2.3748,2.3752,2.3874,2.3875,2.3901,2.3916,2.3949,0,0,0,2.3522,2.3582,2.3556,2.3624,2.3599,2.3675,2.3666,2.3724,2.3761,2.375,2.3875,2.3876,2.3901,2.3914,2.3947,2.3976,2.3988,0,0,2.3597,2.3591,2.3632,2.361,2.369,2.3663,2.3748,2.3784,2.379,2.3847,2.385,2.3904,2.3916,2.3949,2.4063,2.4073,0,0,0,2.3654,2.3682,2.3704,2.374,2.3769,2.3794,2.3817,2.383,2.3878,2.3819,2.3927,2.3934,2.3953,2.3967,2.3975,2.399,2.3883,2.3883,2.3883,2.3755,2.3758,2.3824,2.3835,2.3869,2.3891,2.3918,2.3938,2.3934,2.3958,2.3974,2.4043,2.4059,2.4066,2.4081,2.3992,2.3992,2.3992,2.3992,2.3862,2.3901,2.389,2.3949,2.395,2.4,2.4022,2.4015,2.4059,2.4033,2.405,2.4018,2.4076,2.409,2.3995,2.3994,2.3994,2.3994,2.3994,2.3926,2.3945,2.3959,2.4007,2.4044,2.4053,2.4094,2.4096,2.4097,2.4114,2.4128,2.4128,2.4124,2.4121,2.4122,2.4122,2.4122,2.4122,2.4122,2.3986,2.4001,2.4036,2.407,2.409,2.4117,2.4137,2.4156,2.4178,2.4175,2.4175,2.4164,2.4083,2.406,2.4126,2.4125,2.4125,2.4124,2.4124,2.4088,2.4064,2.4119,2.4139,2.4175,2.4208,2.4209,2.4248,2.4264,2.4283,2.4269,2.4209,2.4204,2.4197,2.4178,2.427,2.427,2.427,2.427,2.414,2.4137,2.419,2.4222,2.4253,2.4257,2.4315,2.4329,2.4341,2.435,2.4337,2.4313,2.4307,2.4305,2.4296,2.4278,2.4393,2.4394,2.4394,2.42,2.42,2.425,2.4261,2.4288,2.4311,2.4363,2.4397,2.4406,2.4399,2.4356,2.4351,2.4313,2.4301,2.4291,2.4277,2.4245,0,0]},{"header":{"parameterUnit":"m.s-1","parameterCategory":1,"la1":30.2992,"la2":30.254,"lo1":-89.0895,"lo2":-89.0443,"dy":0.0025,"dx":0.0025,"nx":19,"ny":19,"refTime":"2026-04-17T21:00:00:Z","depth":0,"parameterNumber":3,"parameterNumberName":"V-component_of_WINDS"},"data":[0,0,0,5.455,5.4554,5.4728,5.4729,5.4953,5.4955,0,0,0,0,0,0,0,0,0,0,0,5.4505,5.4507,5.455,5.4554,5.4728,5.4729,5.4953,5.4955,0,0,0,0,0,0,0,0,0,0,0,5.4504,5.4506,5.4509,5.4555,5.4728,5.4729,5.4952,5.4819,0,0,0,0,0,0,0,0,0,0,5.4649,5.4616,5.4506,5.4509,5.4556,5.4728,5.4729,5.4813,5.4827,5.4877,0,5.4927,0,5.4945,5.4971,5.4972,0,0,0,5.4548,5.4604,5.4645,5.4509,5.4558,5.4727,5.4648,5.4821,5.4838,5.4897,5.493,5.4938,5.4949,5.4972,5.4973,5.5288,5.529,0,0,5.4538,5.4539,5.4633,5.4656,5.4635,5.4642,5.4653,5.4831,5.4866,5.4931,5.4944,5.4953,5.4974,5.4976,5.5287,5.5289,0,0,0,5.4515,5.4533,5.4569,5.4647,5.4678,5.4647,5.466,5.4858,5.487,5.4946,5.4955,5.4975,5.4978,5.5285,5.5287,5.5375,0,0,0,5.4509,5.4519,5.4565,5.4567,5.4675,5.4772,5.4683,5.4858,5.4878,5.4954,5.4975,5.498,5.5283,5.5286,5.5368,5.5415,0,0,0,5.4491,5.4517,5.4545,5.4567,5.4642,5.4769,5.4791,5.4862,5.4884,5.4972,5.4981,5.5282,5.5286,5.5363,5.5406,5.5497,0,0,0,5.4471,5.462,5.4546,5.4714,5.4641,5.4823,5.479,5.4925,5.5011,5.4976,5.5283,5.5287,5.5361,5.54,5.5491,5.5573,5.5608,0,0,5.4658,5.4642,5.4741,5.468,5.4876,5.4796,5.5003,5.508,5.5086,5.5219,5.5227,5.537,5.5405,5.5496,5.5806,5.5834,0,0,0,5.48,5.4871,5.4922,5.5006,5.507,5.5127,5.5172,5.52,5.5313,5.5157,5.5429,5.5449,5.5502,5.5541,5.5565,5.5608,5.5306,5.5305,5.5305,5.5064,5.5066,5.5228,5.525,5.533,5.5375,5.5438,5.5482,5.546,5.5523,5.5563,5.5751,5.5797,5.5815,5.5861,5.5607,5.5608,5.5608,5.5608,5.5336,5.5436,5.5401,5.5546,5.5545,5.5665,5.5711,5.569,5.5798,5.5723,5.5769,5.5685,5.5846,5.5885,5.5615,5.5614,5.5613,5.5612,5.5612,5.5509,5.5556,5.5589,5.5707,5.5797,5.5812,5.5917,5.5912,5.5907,5.5953,5.5992,5.599,5.5986,5.5972,5.5973,5.5974,5.5974,5.5975,5.5975,5.5674,5.5708,5.58,5.5878,5.5929,5.5995,5.6038,5.6087,5.6138,5.6125,5.6125,5.6093,5.5863,5.5803,5.5985,5.5983,5.5982,5.5981,5.598,5.5947,5.5884,5.6026,5.6077,5.6166,5.6253,5.6245,5.6343,5.6381,5.6432,5.6391,5.6222,5.6203,5.6184,5.6135,5.6392,5.6392,5.6392,5.6392,5.6091,5.6082,5.6224,5.6305,5.6384,5.639,5.6544,5.6577,5.6601,5.6623,5.6585,5.652,5.6501,5.6494,5.6468,5.6422,5.6747,5.6747,5.6747,5.6257,5.6255,5.639,5.6416,5.6484,5.6541,5.6685,5.6775,5.6788,5.6761,5.664,5.6625,5.652,5.6486,5.6456,5.6417,5.6332,0,0]}]]